COSMOS 1275 DEB

Satellite information

Favourite Embed

Satellite Type and Status

DEBRISIN ORBIT

Key statistics

Satellite COSMOS 1275 DEB at a glance.

Uptime

16264

Days in orbit

Revolutions

≈ 13.9

Per day

Orbit

LEO

Low Earth Orbit

Inclination

82.9

Latest

Satellite identification and parameters

Extended collection of information and parameters for COSMOS 1275 DEB.

Object identification

Identified? True

Debris? True

Object name: COSMOS 1275 DEB

International designator: 1981-053TZ

Object number (NORAD): 42209

Object ID (CCSDS): 42209

Country: COMMONWEALTH OF INDEPENDENT STATES (CIS)

Current information (Y/N): Y

RCS size: SMALL

Orbital parameters

Period: 103.703 minutes

Inclination: 82.8761 deg

SMA: 7311.768 km

Apoapsis: 973.111 km

Periapsis: 894.154 km

RAAN: 176.4475 deg

Eccentricy: 0.0053993

Argument of periapsis: 50.0984 deg

Mean anomaly: 310.4907 deg

Mean motion: 13.88574506 rev/day

Mean motion (dot): 0.0000116 rev/day2

B* drag term: 0.00094115855 1/REarth

Two-line elements (TLE)

Creation date: Dec. 12, 2025, 10:14 a.m.

Reference frame: TEME

Reference center: EARTH

Epoch: Dec. 12, 2025, 5:55 a.m. UTC

TLE line 0: 0 COSMOS 1275 DEB

TLE line 1: 1 42209U 81053TZ 25346.24693917 .00001160 00000-0 94116-3 0 9997

TLE line 2: 2 42209 82.8761 176.4475 0053993 50.0984 310.4907 13.88574506609714

Live tracking on map

Real-time ground track for satellite COSMOS 1275 DEB.

In-orbit conjunctions

A list of the most updated potential collisions computed for object COSMOS 1275 DEB.

Target Orbit TCA Probability of collision Miss distance Type
SL-8 R/B LEO 2025-09-13 07:54:40 0.0001419219 136.0 (m) ROCKET BODY

Associated space launch

Navigation satellite providing location information for the Tsiklon-B navigation system

COSMOS 1275 DEB was lifted into orbit during the mission ‘Kosmos-3M | Parus 27’, on board a Kosmos-3M space rocket.

The launch took place on June 4, 1981, 3:41 p.m. from 132/2.

For more information about the launch, click the button.

Launch to space Kosmos-3M | Parus 27
Kosmos-3M | Parus 27

Agency: N/A

Status: Launch Successful

Launch date: June 4, 1981, 3:41 p.m. UTC

Rocket: Kosmos-3M

Launch pad: 132/2

Location: Plesetsk Cosmodrome, Russian Federation

...

Latest news about this satellite

There are no fresh news available about this satellite. Check back as we update our databases every day.


Newsletter sign-up

Weekly statistics, charts and insights to help you stay on top of the space industry.